[[{"header":{"parameterUnit":"m.s-1","parameterCategory":1,"la1":30.2991,"la2":30.254,"lo1":-89.0895,"lo2":-89.0444,"dy":0.0017,"dx":0.0017,"nx":28,"ny":28,"refTime":"2024-02-26T09:00:00:Z","depth":0,"parameterNumber":2,"parameterNumberName":"U-component_of_WINDS"},"data":[0,0,0,0,0,0,0,0,0,0,0,0,0,0,0,0,0,0,0,0,0,0,0,0,0,0,0,0,0,0,0,0,0,0,0,0,0,0,0,0,0,0,0,0,0,0,0,0,0,0,0,0,0,0,0,0,0,0,0.1296,0.1296,0,0.1307,0.1307,0.1307,0.1293,0.1293,0.1292,0.1292,0.1306,0.1307,0.1307,0,0,0,0,0,0,0,0,0,0,0,0,0,0.1264,0.1265,0.1296,0.1296,0.1296,0.1307,0.1307,0.1307,0.1293,0.1293,0.1292,0.1291,0.1305,0.1306,0.1308,0,0,0,0,0,0,0,0,0,0,0,0,0,0.1277,0.1265,0.1295,0.129,0.129,0.1307,0.1307,0.1307,0.1293,0.1293,0.1292,0.1291,0.1305,0.1306,0.1308,0.1332,0,0,0.1312,0.1312,0,0,0,0,0,0,0,0,0.1276,0.1278,0.1291,0.129,0.129,0.1298,0.1301,0.1316,0.1294,0.1292,0.1292,0.1291,0.1304,0.1305,0.1309,0.1332,0.1333,0.1312,0.1313,0.1313,0.1313,0,0,0,0,0,0,0,0.1275,0.1278,0.13,0.1291,0.1291,0.1288,0.1289,0.1304,0.1302,0.1292,0.1291,0.1293,0.1304,0.1308,0.1309,0.1333,0.1312,0.1313,0.1314,0.1314,0.1377,0.1378,0,0,0,0,0,0,0.1275,0.1277,0.13,0.13,0.1281,0.1289,0.129,0.1296,0.1302,0.1302,0.1293,0.1292,0.1306,0.1308,0.131,0.1339,0.1313,0.1314,0.1315,0.1377,0.1378,0.1379,0,0,0,0,0,0,0.1274,0.1277,0.1299,0.1288,0.1291,0.129,0.1297,0.1297,0.1301,0.1303,0.1303,0.1298,0.1306,0.1308,0.1326,0.1339,0.1315,0.1316,0.1375,0.1377,0.1378,0.1397,0,0,0,0,0,0,0.1273,0.1277,0.1285,0.1289,0.1292,0.1315,0.1298,0.1298,0.1303,0.1301,0.1307,0.1307,0.1305,0.1324,0.1328,0.1341,0.1317,0.1374,0.1376,0.1378,0.1395,0.1399,0.1402,0,0,0,0,0,0.1272,0.129,0.1286,0.1289,0.1302,0.1315,0.1317,0.1314,0.1304,0.1313,0.1314,0.1307,0.1337,0.1326,0.133,0.1344,0.1373,0.1376,0.1378,0.1394,0.1398,0.1402,0,0,0,0,0,0,0.1289,0.1291,0.1286,0.1305,0.131,0.1313,0.1324,0.1318,0.1327,0.1325,0.1321,0.1322,0.1342,0.1344,0.1332,0.1368,0.1354,0.1357,0.1365,0.1369,0.1373,0.1372,0.1318,0,0,0,0,0,0.1295,0.1305,0.1306,0.1323,0.1326,0.1325,0.133,0.1327,0.1333,0.1335,0.1337,0.1344,0.1355,0.1362,0.1372,0.1395,0.1397,0.1407,0.141,0.1413,0.1415,0.1429,0.1434,0.1385,0.1385,0.1385,0,0,0.1307,0.1309,0.1316,0.1327,0.133,0.1342,0.1327,0.1339,0.1348,0.1337,0.1355,0.1357,0.1364,0.1385,0.1394,0.1388,0.1429,0.1415,0.1417,0.1419,0.1432,0.1436,0.144,0.1387,0.1386,0.1386,0,0,0.1336,0.1338,0.1353,0.1357,0.1362,0.1361,0.1365,0.1369,0.137,0.1387,0.1379,0.139,0.1409,0.1414,0.142,0.1451,0.1445,0.1454,0.1472,0.1485,0.1489,0.1493,0.1505,0.1509,0.1457,0.1457,0.1457,0,0.1351,0.1367,0.1362,0.1375,0.138,0.137,0.1386,0.139,0.1399,0.1404,0.1396,0.142,0.1423,0.1446,0.1454,0.1458,0.1463,0.1454,0.1489,0.1492,0.1495,0.1507,0.1512,0.1458,0.1458,0.1458,0.1458,0,0.1386,0.1397,0.1409,0.1417,0.1424,0.1438,0.1436,0.1444,0.144,0.144,0.1459,0.1463,0.1474,0.1479,0.1476,0.1502,0.1498,0.1489,0.1476,0.1501,0.1512,0.1517,0.146,0.1459,0.1459,0.1459,0,0,0.1425,0.143,0.1435,0.1439,0.1444,0.1454,0.1468,0.1478,0.1486,0.1492,0.1505,0.1521,0.1514,0.152,0.1517,0.1529,0.1555,0.1519,0.1519,0.1527,0.1585,0.1592,0.1597,0.1551,0.1551,0.1552,0.1585,0,0.1454,0.1478,0.1475,0.1499,0.151,0.1501,0.1514,0.1519,0.152,0.153,0.1532,0.1543,0.1532,0.1536,0.1547,0.1549,0.1567,0.1547,0.1564,0.1564,0.1563,0.1602,0.1609,0.164,0.1589,0.159,0.159,0,0.1491,0.1499,0.1524,0.1529,0.1533,0.1545,0.1554,0.1564,0.157,0.157,0.1577,0.1573,0.1588,0.1574,0.1596,0.1583,0.159,0.1592,0.1593,0.1595,0.1579,0.1606,0.1649,0.1654,0.1597,0.1596,0.1596,0,0.1519,0.1535,0.1553,0.1556,0.1562,0.157,0.1573,0.1579,0.1586,0.1594,0.1599,0.161,0.1616,0.1625,0.1623,0.1613,0.1647,0.1632,0.1648,0.1648,0.1656,0.1656,0.1702,0.1659,0.1659,0.1659,0.1659,0,0.1552,0.1568,0.1565,0.1576,0.1594,0.159,0.1608,0.161,0.1615,0.1627,0.162,0.1631,0.1629,0.164,0.164,0.1659,0.1661,0.1663,0.1662,0.1664,0.1664,0.1669,0.1667,0.166,0.166,0.166,0.1659,0,0.1586,0.1584,0.1603,0.1606,0.1608,0.1621,0.1625,0.1636,0.1636,0.1651,0.1654,0.1655,0.1669,0.1668,0.1684,0.1683,0.1707,0.1704,0.1705,0.1705,0.1721,0.172,0.1773,0.178,0.1732,0.1732,0.1733,0,0.1607,0.1619,0.1624,0.1632,0.1635,0.1646,0.1653,0.165,0.1658,0.1667,0.1677,0.1689,0.1699,0.1722,0.1724,0.1736,0.1734,0.1752,0.1736,0.1737,0.1735,0.1735,0.1737,0.1755,0.1755,0.1756,0.1756,0,0.1646,0.1645,0.1655,0.1665,0.1673,0.1681,0.1688,0.1694,0.1692,0.1701,0.1715,0.1722,0.1738,0.1751,0.1763,0.1767,0.1762,0.1761,0.1766,0.1767,0.1768,0.1769,0.1714,0.176,0.176,0.1759,0.1759,0.1759,0.1675,0.1685,0.1691,0.1703,0.1708,0.1715,0.1725,0.1727,0.1738,0.175,0.1748,0.1763,0.177,0.1786,0.1791,0.1804,0.1797,0.1804,0.1805,0.1807,0.181,0.1765,0.1806,0.1805,0.1805,0.1805,0.1805,0,0.1714,0.1717,0.1728,0.1738,0.1747,0.1741,0.1749,0.1757,0.1771,0.1778,0.1788,0.1804,0.1817,0.1821,0.1833,0.1843,0.1841,0.1847,0.1846,0.1848,0.1814,0.1809,0.1848,0.1848,0.1848,0.1848,0.1848,0.1848,0.1735,0.1753,0.1753,0.1774,0.1778,0.1792,0.1797,0.1804,0.181,0.1828,0.1839,0.1841,0.1847,0.186,0.1872,0.1873,0.1879,0.1886,0.1886,0.1854,0.185,0.1846,0.1841,0.1887,0.1887,0.1918,0.1919,0.1919]},{"header":{"parameterUnit":"m.s-1","parameterCategory":1,"la1":30.2991,"la2":30.254,"lo1":-89.0895,"lo2":-89.0444,"dy":0.0017,"dx":0.0017,"nx":28,"ny":28,"refTime":"2024-02-26T09:00:00:Z","depth":0,"parameterNumber":3,"parameterNumberName":"V-component_of_WINDS"},"data":[0,0,0,0,0,0,0,0,0,0,0,0,0,0,0,0,0,0,0,0,0,0,0,0,0,0,0,0,0,0,0,0,0,0,0,0,0,0,0,0,0,0,0,0,0,0,0,0,0,0,0,0,0,0,0,0,0,0,5.7288,5.729,0,5.7479,5.7481,5.7483,5.7512,5.7511,5.7509,5.7507,5.7699,5.7705,5.7712,0,0,0,0,0,0,0,0,0,0,0,0,0,5.6947,5.6953,5.7288,5.729,5.7293,5.7479,5.7481,5.7484,5.7513,5.751,5.7508,5.7506,5.7697,5.7705,5.7713,0,0,0,0,0,0,0,0,0,0,0,0,0,5.7112,5.6955,5.7288,5.733,5.7335,5.7478,5.7481,5.7484,5.7513,5.751,5.7508,5.7505,5.7694,5.7704,5.7714,5.7827,0,0,5.7744,5.7749,0,0,0,0,0,0,0,0,5.7103,5.7124,5.7321,5.7327,5.7334,5.7469,5.7431,5.7599,5.7514,5.7445,5.7507,5.7504,5.7624,5.764,5.7681,5.7836,5.7844,5.7745,5.7751,5.7756,5.7759,0,0,0,0,0,0,0,5.7091,5.7116,5.7363,5.7324,5.7332,5.7338,5.7359,5.7463,5.7547,5.7451,5.7454,5.7476,5.7627,5.7671,5.7686,5.7847,5.7745,5.7754,5.776,5.7764,5.8107,5.811,0,0,0,0,0,0,5.7072,5.7107,5.7357,5.7369,5.721,5.7347,5.737,5.7428,5.7546,5.7561,5.7478,5.7477,5.7656,5.7674,5.7693,5.7836,5.7756,5.7765,5.7771,5.8104,5.8108,5.8111,0,0,0,0,0,0,5.7065,5.7095,5.735,5.7239,5.7272,5.7355,5.7421,5.7433,5.7478,5.7566,5.7581,5.7508,5.7654,5.7679,5.7794,5.7843,5.777,5.7779,5.81,5.8105,5.8109,5.812,0,0,0,0,0,0,5.7055,5.7092,5.7136,5.724,5.7278,5.7449,5.7424,5.7439,5.7495,5.7495,5.7598,5.7613,5.7654,5.7779,5.7804,5.7855,5.7787,5.8096,5.8102,5.8108,5.8116,5.8125,5.8132,0,0,0,0,0,5.7043,5.713,5.7138,5.7168,5.7335,5.7451,5.7473,5.752,5.7499,5.7544,5.7601,5.7609,5.7833,5.7791,5.7819,5.7874,5.8093,5.8101,5.8107,5.8113,5.8123,5.8132,0,0,0,0,0,0,5.7027,5.7144,5.7154,5.7277,5.7355,5.7456,5.7514,5.7529,5.7613,5.7609,5.7662,5.7685,5.7799,5.7848,5.7799,5.7991,5.7961,5.7974,5.7956,5.7966,5.7974,5.7961,5.7795,0,0,0,0,0,5.7039,5.7124,5.7221,5.732,5.7359,5.743,5.7482,5.7512,5.7594,5.7626,5.7691,5.7769,5.7857,5.7914,5.8,5.8123,5.8147,5.8174,5.8182,5.8189,5.82,5.8271,5.8286,5.8134,5.8134,5.8134,0,0,5.7062,5.7136,5.7187,5.7319,5.7383,5.7471,5.7457,5.7549,5.7615,5.7639,5.7754,5.7805,5.7895,5.8016,5.8072,5.806,5.8247,5.8197,5.8202,5.821,5.828,5.8294,5.8307,5.8138,5.8138,5.8137,0,0,5.7151,5.7214,5.7306,5.737,5.7467,5.7514,5.7536,5.7636,5.7672,5.7788,5.7809,5.7887,5.8036,5.8101,5.8154,5.8269,5.8281,5.8295,5.8338,5.8407,5.8419,5.843,5.8474,5.8489,5.8306,5.8306,5.8306,0,5.7167,5.7302,5.7351,5.7444,5.7503,5.753,5.7624,5.7683,5.7802,5.7842,5.7826,5.8018,5.808,5.8218,5.8246,5.8287,5.8315,5.8285,5.8414,5.8425,5.8436,5.8479,5.8495,5.8307,5.8307,5.8307,5.8307,0,5.7319,5.7412,5.7474,5.7591,5.7656,5.7749,5.7812,5.7872,5.7896,5.7945,5.8064,5.814,5.8243,5.8278,5.8301,5.842,5.841,5.8403,5.8375,5.8451,5.8492,5.8509,5.8309,5.8309,5.8308,5.8308,0,0,5.7403,5.7548,5.757,5.7625,5.7735,5.7807,5.7901,5.8004,5.8056,5.8137,5.8219,5.8346,5.8342,5.8401,5.8432,5.8493,5.8583,5.848,5.8483,5.8499,5.8722,5.8728,5.8746,5.8591,5.8594,5.8596,5.8715,0,5.7507,5.7678,5.7726,5.787,5.7958,5.7986,5.8069,5.8145,5.8193,5.8274,5.8326,5.8417,5.8403,5.844,5.8501,5.8559,5.8629,5.8551,5.8668,5.8672,5.8647,5.8767,5.8773,5.8881,5.8731,5.8734,5.8736,0,5.765,5.7738,5.7891,5.7993,5.8031,5.8105,5.8205,5.8281,5.8368,5.8399,5.8467,5.8493,5.8593,5.8558,5.8698,5.8644,5.8694,5.873,5.8735,5.875,5.871,5.8787,5.8916,5.8934,5.8761,5.8759,5.8757,0,5.77,5.7855,5.7969,5.8014,5.8134,5.8186,5.8238,5.8323,5.8382,5.8469,5.8508,5.8604,5.8657,5.8731,5.8782,5.8752,5.8918,5.8887,5.8948,5.8947,5.8983,5.8981,5.9125,5.9011,5.9011,5.9011,5.901,0,5.7812,5.7906,5.7993,5.8063,5.8169,5.8223,5.8327,5.838,5.8456,5.8537,5.8565,5.864,5.8703,5.8786,5.8827,5.8938,5.896,5.8989,5.8999,5.8988,5.8985,5.9023,5.9018,5.9015,5.9014,5.9013,5.9013,0,5.7886,5.7948,5.8074,5.8179,5.8207,5.8281,5.837,5.8439,5.8489,5.8591,5.8618,5.8695,5.8796,5.8854,5.8979,5.9007,5.9131,5.9136,5.9102,5.9107,5.9166,5.9161,5.9343,5.937,5.9235,5.9236,5.9237,0,5.7955,5.8029,5.8142,5.8199,5.8253,5.8344,5.8406,5.8462,5.8525,5.8631,5.8688,5.879,5.8875,5.9034,5.9101,5.9197,5.9207,5.9264,5.9222,5.9209,5.9211,5.9208,5.9216,5.9272,5.9273,5.9274,5.9275,0,5.8072,5.8099,5.8188,5.8289,5.8363,5.8444,5.8524,5.8569,5.8639,5.8708,5.8812,5.8878,5.9008,5.911,5.9213,5.9266,5.9283,5.9288,5.9307,5.9298,5.9277,5.9292,5.9125,5.9284,5.9283,5.9282,5.9282,5.9281,5.8147,5.8215,5.8307,5.8405,5.8473,5.8548,5.8619,5.8679,5.8767,5.8879,5.8906,5.9015,5.9103,5.9243,5.9299,5.9385,5.9376,5.9403,5.9411,5.9418,5.9421,5.9261,5.9404,5.9403,5.9403,5.9403,5.9403,0,5.8268,5.8329,5.8419,5.8533,5.8611,5.8621,5.8711,5.8776,5.8873,5.8953,5.9038,5.9158,5.9257,5.9333,5.9435,5.949,5.9501,5.9515,5.9513,5.9526,5.9422,5.9397,5.9505,5.9505,5.9505,5.9505,5.9505,5.9505,5.834,5.8457,5.8496,5.8646,5.8706,5.8815,5.8867,5.8937,5.9002,5.9136,5.922,5.9269,5.9348,5.9456,5.9548,5.9568,5.9605,5.9619,5.964,5.9543,5.9532,5.9522,5.9498,5.9626,5.9626,5.9737,5.9738,5.9739]}]]